{"data":{"norad_id":62688,"intl_designator":"2025-009CH","name":"BLUEBON","alt_names":[],"object_type":"PAYLOAD","status":"ACTIVE","operator":null,"country":"POL","launch_date":"2025-01-14","launch_site_code":"AFWTR","launch_vehicle":null,"mission":null,"orbit_class":"UNKNOWN","rcs_meters":null,"size_class":null,"mass_kg":null,"dimensions":null,"purposes":[],"wikipedia_slug":null,"has_3d_model":false,"image_url":null,"decayed_at":null,"tle_current":{"epoch":"2026-09-22T17:41:57.369984Z","epoch_age_seconds":126351,"freshness":"FRESH","line1":"1 62688U 25009CH  26265.73746956  .00005619  00000+0  18416-3 0  9997","line2":"2 62688  97.3939 348.5999 0001725  44.6403 315.4978 15.32043772 93907","mean_motion":15.32043772,"eccentricity":0.0001725,"inclination_deg":97.3939,"raan_deg":348.5999,"arg_perigee_deg":44.6403,"mean_anomaly_deg":315.4978,"bstar":0.00018416,"rev_number":9390,"period_min":93.992092544468,"perigee_km":468.53416586529,"apogee_km":470.89667495033,"semimajor_km":6847.8524204078,"source":"CELESTRAK","updated_at":"2026-09-23T09:00:21.550441Z"}}}